Flag for U.S.A. Weather past 2 weeks in Fresno, California, U.S.A.

Now
75 °F

Clear.


Feels Like: 77 °F
Forecast: 59 / 87 °F
Wind: 8 mph from Northwest

Location: Fresno Air Terminal

Current Time: May 25, 2015 at 10:43:48 PM

Latest Report: May 25, 2015 at 9:53 PM


Visibility: 10 mi

Pressure: 29.85 "Hg

Humidity: 37%

Dew point: 47 °F

Location of FresnoLocation

Historic Weather in Fresno — Graph

°F

Fresno temperature yesterday

Maximum temperature yesterday: 81 °F (at 3:53 PM)
Minimum temperature yesterday: 55 °F (at 4:53 AM)
Average temperature yesterday: 69 °F

Past Weeks' High & Low Weather Summary

 TemperatureHumidityPressure
High87 °F (May 25, 2:53 PM)93% (May 15, 3:53 AM)30.07 "Hg (May 15, 3:53 AM)
Low51 °F (May 13, 5:53 AM)12% (May 12, 4:53 PM)29.73 "Hg (May 14, 4:53 PM)
Average65 °F51%29.91 "Hg
* Reported May 10 8:53 PM — May 25 8:53 PM, Fresno, Weather by CustomWeather, © 2015

Note: Actual official high and low records may vary slightly from our data, if they occured in-between our weather recording intervals... More about our weather records

Advertising

Fresno weather history for previous 24 hours

 ConditionsComfort  
Time TempWeatherWind HumidityBarometerVisibility
8:53 PM
Mon, May 25
78 °FPassing clouds.13 mph31%29.83 "Hg10 mi
7:53 PM82 °FPassing clouds.12 mph28%29.81 "Hg10 mi
6:53 PM85 °FPassing clouds.10 mph27%29.80 "Hg10 mi
5:53 PM87 °FPassing clouds.7 mph23%29.80 "Hg10 mi
4:53 PM87 °FPassing clouds.7 mph25%29.81 "Hg10 mi
3:53 PM86 °FPassing clouds.6 mph27%29.83 "Hg10 mi
2:53 PM87 °FPassing clouds.3 mph27%29.85 "Hg10 mi
1:53 PM84 °FPassing clouds.3 mph31%29.87 "Hg10 mi
12:53 PM83 °FPassing clouds.3 mph33%29.88 "Hg10 mi
11:53 AM79 °FPassing clouds.No wind38%29.89 "Hg10 mi
10:53 AM75 °FSunny.6 mph43%29.90 "Hg10 mi
9:53 AM71 °FSunny.5 mph49%29.91 "Hg10 mi
8:53 AM66 °FSunny.3 mph59%29.91 "Hg10 mi
7:53 AM61 °FSunny.3 mph70%29.91 "Hg10 mi
6:53 AM59 °FPassing clouds.9 mph75%29.90 "Hg10 mi
5:53 AM58 °FPassing clouds.8 mph75%29.88 "Hg10 mi
4:53 AM59 °FClear.6 mph75%29.87 "Hg10 mi
3:53 AM60 °FClear.7 mph72%29.87 "Hg10 mi
2:53 AM62 °FClear.8 mph67%29.87 "Hg10 mi
1:53 AM63 °FClear.10 mph65%29.87 "Hg10 mi
12:53 AM65 °FClear.7 mph61%29.88 "Hg10 mi
11:53 PM
Sun, May 24
68 °FClear.10 mph53%29.87 "Hg10 mi
10:53 PM73 °FClear.8 mph43%29.87 "Hg10 mi
Weather by CustomWeather, © 2015

See weather overviewHow to use our weather pages